CW3827 Weather Reports


Display with metric or nautical units.
time (UTC)temp
F
wind
direction
speed
MPH
gust
MPH
rain 1hr
in
rain 24hr
in
rain mn
in
humidity
%
barometer
mb
20260902140020 70 94 7.0 12.0 0.00 0.00 0.00 59 1025.9
20260902134517 68 86 8.0 14.0 0.00 0.00 0.00 62 1025.8
20260902133017 65 57 9.0 12.0 0.00 0.00 0.00 68 1025.5
20260902131512 64 73 4.0 7.0 0.00 0.00 0.00 68 1025.2
20260902130007 62 30 2.0 6.0 0.00 0.00 0.00 69 1025.0
20260902124528 63 67 4.0 8.0 0.00 0.00 0.00 67 1025.0
20260902123027 61 61 6.0 7.0 0.00 0.00 0.00 72 1024.8
20260902121526 61 47 7.0 9.0 0.00 0.00 0.00 73 1024.9
20260902120018 61 57 10.0 13.0 0.00 0.00 0.00 74 1024.8
20260902114530 62 68 9.0 14.0 0.00 0.00 0.00 71 1024.8
20260902113009 63 67 7.0 7.0 0.00 0.00 0.00 68 1024.7
20260902111529 62 72 6.0 8.0 0.00 0.00 0.00 69 1024.7
20260902110028 63 47 5.0 7.0 0.00 0.00 0.00 67 1024.7
20260902104526 64 59 6.0 7.0 0.00 0.00 0.00 65 1024.8
20260902103024 65 71 5.0 6.0 0.00 0.00 0.00 64 1024.8
20260902101518 64 70 5.0 7.0 0.00 0.00 0.00 65 1024.8
20260902100017 62 77 5.0 7.0 0.00 0.00 0.00 70 1024.8
20260902094530 64 70 7.0 9.0 0.00 0.00 0.00 67 1024.8
20260902093030 64 60 5.0 7.0 0.00 0.00 0.00 66 1024.9
20260902091528 65 82 2.0 3.0 0.00 0.00 0.00 63 1024.8
20260902090029 64 46 5.0 8.0 0.00 0.00 0.00 66 1024.9
20260902084524 63 32 4.0 6.0 0.00 0.00 0.00 68 1024.8
20260902083020 65 51 6.0 9.0 0.00 0.00 0.00 64 1024.6
20260902081533 64 72 4.0 10.0 0.00 0.00 0.00 67 1024.8
20260902080005 65 37 8.0 10.0 0.00 0.00 0.00 66 1024.8
20260902074506 64 47 7.0 9.0 0.00 0.00 0.00 68 1025.0
20260902073007 64 47 7.0 10.0 0.00 0.00 0.00 69 1025.0
20260902071506 65 47 7.0 9.0 0.00 0.00 0.00 68 1025.0
20260902070007 65 56 5.0 8.0 0.00 0.00 0.00 67 1024.8
20260902064508 67 64 6.0 11.0 0.00 0.00 0.00 64 1025.0
20260902063009 66 83 9.0 11.0 0.00 0.00 0.00 66 1025.1
20260902061518 65 55 8.0 11.0 0.00 0.00 0.00 69 1025.1
20260902060010 65 59 7.0 10.0 0.00 0.00 0.00 69 1025.1
20260902054509 67 65 9.0 11.0 0.00 0.00 0.00 66 1025.1
20260902053010 68 60 8.0 13.0 0.00 0.00 0.00 65 1025.1
20260902051511 67 65 9.0 11.0 0.00 0.00 0.00 66 1025.3
20260902050020 68 68 10.0 13.0 0.00 0.00 0.00 64 1025.4
20260902044512 68 44 11.0 16.0 0.00 0.00 0.00 64 1025.5
20260902043013 67 61 11.0 13.0 0.00 0.00 0.00 69 1025.5
20260902041522 67 68 6.0 8.0 0.00 0.00 0.00 70 1025.5
20260902040014 70 85 4.0 9.0 0.00 0.00 0.00 60 1025.3
20260902034514 70 108 7.0 9.0 0.00 0.00 0.00 60 1025.2
20260902033018 72 98 6.0 10.0 0.00 0.00 0.00 56 1025.0
20260902031521 71 102 7.0 11.0 0.00 0.00 0.00 59 1024.8
20260902030016 68 79 9.0 11.0 0.00 0.00 0.00 67 1024.6
20260902024517 67 74 6.0 8.0 0.00 0.00 0.00 71 1024.4
20260902023020 66 77 7.0 8.0 0.00 0.00 0.00 76 1024.2
20260902021532 66 81 5.0 7.0 0.00 0.00 0.00 80 1024.2
20260902020017 66 63 6.0 9.0 0.00 0.00 0.00 79 1024.2
20260902014531 68 78 8.0 9.0 0.00 0.00 0.00 74 1024.0
20260902013019 69 50 7.0 10.0 0.00 0.00 0.00 69 1023.8
20260902011510 71 53 6.0 11.0 0.00 0.00 0.00 68 1023.5
20260902010015 72 55 8.0 11.0 0.00 0.00 0.00 66 1023.5
20260902004508 73 70 9.0 17.0 0.00 0.00 0.00 58 1023.6
20260902003003 74 84 8.0 12.0 0.00 0.00 0.00 57 1023.6
20260902001503 74 103 9.0 17.0 0.00 0.00 0.00 56 1023.6
20260902000006 75 99 5.0 9.0 0.00 0.00 0.00 56 1023.8
20260901234514 75 65 6.0 9.0 0.00 0.00 0.00 57 1023.5
20260901233021 74 70 5.0 11.0 0.00 0.00 0.00 62 1023.4
20260901231511 77 110 18.0 26.0 0.00 0.00 0.00 50 1023.5
20260901230006 79 84 9.0 16.0 0.00 0.00 0.00 44 1023.5
20260901224504 79 60 13.0 17.0 0.00 0.00 0.00 44 1023.6
20260901223004 79 61 11.0 17.0 0.00 0.00 0.00 44 1023.7
20260901221518 79 44 11.0 18.0 0.00 0.00 0.00 43 1023.6
20260901220016 79 108 15.0 19.0 0.00 0.00 0.00 44 1023.7
20260901214526 80 49 14.0 21.0 0.00 0.00 0.00 44 1023.9
20260901213009 80 27 16.0 22.0 0.00 0.00 0.00 45 1024.0
20260901211504 78 89 19.0 23.0 0.00 0.00 0.00 49 1024.2
20260901210004 77 44 17.0 26.0 0.00 0.00 0.00 48 1024.5
20260901204524 78 61 17.0 22.0 0.00 0.00 0.00 45 1024.5
20260901203020 80 63 19.0 25.0 0.00 0.00 0.00 45 1024.8
20260901201514 80 92 20.0 30.0 0.00 0.00 0.00 42 1025.0
20260901200018 84 197 1.0 8.0 0.00 0.00 0.00 34 1025.0
20260901194513 83 354 6.0 11.0 0.00 0.00 0.00 35 1025.0
20260901193030 83 330 4.0 13.0 0.00 0.00 0.00 35 1025.3
20260901191527 82 330 7.0 15.0 0.00 0.00 0.00 36 1025.5
20260901190030 82 342 9.0 15.0 0.00 0.00 0.00 37 1025.6
20260901184520 81 11 6.0 11.0 0.00 0.00 0.00 39 1025.5
20260901183016 81 12 8.0 12.0 0.00 0.00 0.00 38 1025.6
20260901181518 82 28 7.0 12.0 0.00 0.00 0.00 37 1025.8
20260901180033 81 22 2.0 16.0 0.00 0.00 0.00 37 1025.9
20260901174530 80 273 7.0 11.0 0.00 0.00 0.00 39 1026.2
20260901173026 78 271 4.0 8.0 0.00 0.00 0.00 42 1026.2
20260901171523 77 195 5.0 10.0 0.00 0.00 0.00 43 1026.3
20260901170016 77 304 3.0 9.0 0.00 0.00 0.00 43 1026.3
20260901164516 77 302 6.0 9.0 0.00 0.00 0.00 45 1026.3
20260901163037 77 283 5.0 10.0 0.00 0.00 0.00 44 1026.1
20260901161508 79 288 5.0 9.0 0.00 0.00 0.00 43 1026.0
20260901160011 77 267 3.0 6.0 0.00 0.00 0.00 45 1025.8
20260901154505 77 293 2.0 6.0 0.00 0.00 0.00 46 1025.8
20260901153007 78 292 1.0 5.0 0.00 0.00 0.00 45 1025.9
20260901151521 77 322 2.0 5.0 0.00 0.00 0.00 48 1025.8
20260901150012 78 57 1.0 2.0 0.00 0.00 0.00 46 1025.8
20260901144514 74 72 2.0 5.0 0.00 0.00 0.00 53 1025.8
20260901143010 75 82 2.0 4.0 0.00 0.00 0.00 50 1025.7
20260901141509 72 84 3.0 5.0 0.00 0.00 0.00 56 1025.7